<?xml version="1.0" encoding="UTF-8" standalone="no" ?>
<gpx xmlns="http://www.topografix.com/GPX/1/1" xmlns:xsi="http://www.w3.org/2001/XMLSchema-instance" xsi:schemaLocation="http://www.topografix.com/GPX/1/1 http://www.topografix.com/GPX/1/1/gpx.xsd" version="1.1" creator="VisuGPX - https://www.visugpx.com">
  <metadata>
    <name>tour de bretagne</name>
    <desc><![CDATA[tracé 2008]]></desc>
  </metadata>
  <trk>
    <name><![CDATA[fusion]]></name>
    <trkseg>
      <trkpt lat="48.62008" lon="-1.60443">
        <ele>8</ele>
        <time>2007-12-24T14:39:15Z</time>
      </trkpt>
      <trkpt lat="48.61638" lon="-1.60469">
        <ele>7</ele>
        <time>2007-12-24T14:39:15Z</time>
      </trkpt>
      <trkpt lat="48.61652" lon="-1.60209">
        <ele>7</ele>
        <time>2007-12-24T14:39:15Z</time>
      </trkpt>
      <trkpt lat="48.61634" lon="-1.59865">
        <ele>7</ele>
        <time>2007-12-24T14:39:15Z</time>
      </trkpt>
      <trkpt lat="48.6151" lon="-1.5933">
        <ele>8</ele>
        <time>2007-12-24T14:39:15Z</time>
      </trkpt>
      <trkpt lat="48.60474" lon="-1.59408">
        <ele>8</ele>
        <time>2007-12-24T14:39:15Z</time>
      </trkpt>
      <trkpt lat="48.60439" lon="-1.5931">
        <ele>8</ele>
        <time>2007-12-24T14:39:15Z</time>
      </trkpt>
      <trkpt lat="48.60442" lon="-1.59151">
        <ele>8</ele>
        <time>2007-12-24T14:39:15Z</time>
      </trkpt>
      <trkpt lat="48.60426" lon="-1.59038">
        <ele>8</ele>
        <time>2007-12-24T14:39:15Z</time>
      </trkpt>
      <trkpt lat="48.60305" lon="-1.58964">
        <ele>8</ele>
        <time>2007-12-24T14:39:15Z</time>
      </trkpt>
      <trkpt lat="48.602" lon="-1.5899">
        <ele>9</ele>
        <time>2007-12-24T14:39:15Z</time>
      </trkpt>
      <trkpt lat="48.59977" lon="-1.58878">
        <ele>8</ele>
        <time>2007-12-24T14:39:15Z</time>
      </trkpt>
      <trkpt lat="48.59866" lon="-1.58755">
        <ele>8</ele>
        <time>2007-12-24T14:39:15Z</time>
      </trkpt>
      <trkpt lat="48.59619" lon="-1.58956">
        <ele>7</ele>
        <time>2007-12-24T14:39:15Z</time>
      </trkpt>
      <trkpt lat="48.59534" lon="-1.58981">
        <ele>6</ele>
        <time>2007-12-24T14:39:15Z</time>
      </trkpt>
      <trkpt lat="48.59146" lon="-1.59033">
        <ele>7</ele>
        <time>2007-12-24T14:39:15Z</time>
      </trkpt>
      <trkpt lat="48.59026" lon="-1.58983">
        <ele>12</ele>
        <time>2007-12-24T14:39:15Z</time>
      </trkpt>
      <trkpt lat="48.58938" lon="-1.59058">
        <ele>41</ele>
        <time>2007-12-24T14:39:15Z</time>
      </trkpt>
      <trkpt lat="48.58929" lon="-1.59115">
        <ele>50</ele>
        <time>2007-12-24T14:39:15Z</time>
      </trkpt>
      <trkpt lat="48.58848" lon="-1.59136">
        <ele>56</ele>
        <time>2007-12-24T14:39:15Z</time>
      </trkpt>
      <trkpt lat="48.58872" lon="-1.59216">
        <ele>56</ele>
        <time>2007-12-24T14:39:15Z</time>
      </trkpt>
      <trkpt lat="48.5892" lon="-1.59328">
        <ele>59</ele>
        <time>2007-12-24T14:39:15Z</time>
      </trkpt>
      <trkpt lat="48.58985" lon="-1.5955">
        <ele>66</ele>
        <time>2007-12-24T14:39:15Z</time>
      </trkpt>
      <trkpt lat="48.58973" lon="-1.59684">
        <ele>69</ele>
        <time>2007-12-24T14:39:15Z</time>
      </trkpt>
      <trkpt lat="48.58979" lon="-1.60048">
        <ele>63</ele>
        <time>2007-12-24T14:39:15Z</time>
      </trkpt>
      <trkpt lat="48.59162" lon="-1.60028">
        <ele>73</ele>
        <time>2007-12-24T14:39:15Z</time>
      </trkpt>
      <trkpt lat="48.59261" lon="-1.6009">
        <ele>74</ele>
        <time>2007-12-24T14:39:15Z</time>
      </trkpt>
      <trkpt lat="48.59212" lon="-1.60293">
        <ele>71</ele>
        <time>2007-12-24T14:39:15Z</time>
      </trkpt>
      <trkpt lat="48.5923" lon="-1.60423">
        <ele>69</ele>
        <time>2007-12-24T14:39:15Z</time>
      </trkpt>
      <trkpt lat="48.59325" lon="-1.6041">
        <ele>69</ele>
        <time>2007-12-24T14:39:15Z</time>
      </trkpt>
      <trkpt lat="48.59365" lon="-1.60565">
        <ele>63</ele>
        <time>2007-12-24T14:39:15Z</time>
      </trkpt>
      <trkpt lat="48.59338" lon="-1.60686">
        <ele>72</ele>
        <time>2007-12-24T14:39:15Z</time>
      </trkpt>
      <trkpt lat="48.59365" lon="-1.60827">
        <ele>64</ele>
        <time>2007-12-24T14:39:15Z</time>
      </trkpt>
      <trkpt lat="48.59344" lon="-1.60927">
        <ele>58</ele>
        <time>2007-12-24T14:39:15Z</time>
      </trkpt>
      <trkpt lat="48.59306" lon="-1.6091">
        <ele>54</ele>
        <time>2007-12-24T14:39:15Z</time>
      </trkpt>
      <trkpt lat="48.59283" lon="-1.61075">
        <ele>47</ele>
        <time>2007-12-24T14:39:15Z</time>
      </trkpt>
      <trkpt lat="48.59431" lon="-1.61201">
        <ele>21</ele>
        <time>2007-12-24T14:39:15Z</time>
      </trkpt>
      <trkpt lat="48.59438" lon="-1.6127">
        <ele>11</ele>
        <time>2007-12-24T14:39:15Z</time>
      </trkpt>
      <trkpt lat="48.59408" lon="-1.6144">
        <ele>15</ele>
        <time>2007-12-24T14:39:15Z</time>
      </trkpt>
      <trkpt lat="48.59341" lon="-1.61429">
        <ele>30</ele>
        <time>2007-12-24T14:39:15Z</time>
      </trkpt>
      <trkpt lat="48.59182" lon="-1.61586">
        <ele>43</ele>
        <time>2007-12-24T14:39:15Z</time>
      </trkpt>
      <trkpt lat="48.59111" lon="-1.61625">
        <ele>49</ele>
        <time>2007-12-24T14:39:15Z</time>
      </trkpt>
      <trkpt lat="48.59086" lon="-1.61701">
        <ele>51</ele>
        <time>2007-12-24T14:39:15Z</time>
      </trkpt>
      <trkpt lat="48.58992" lon="-1.61748">
        <ele>50</ele>
        <time>2007-12-24T14:39:15Z</time>
      </trkpt>
      <trkpt lat="48.58928" lon="-1.61726">
        <ele>51</ele>
        <time>2007-12-24T14:39:15Z</time>
      </trkpt>
      <trkpt lat="48.58762" lon="-1.62046">
        <ele>70</ele>
        <time>2007-12-24T14:39:15Z</time>
      </trkpt>
      <trkpt lat="48.58994" lon="-1.62047">
        <ele>63</ele>
        <time>2007-12-24T14:39:15Z</time>
      </trkpt>
      <trkpt lat="48.59107" lon="-1.62032">
        <ele>63</ele>
        <time>2007-12-24T14:39:15Z</time>
      </trkpt>
      <trkpt lat="48.5913" lon="-1.62064">
        <ele>64</ele>
        <time>2007-12-24T14:39:15Z</time>
      </trkpt>
      <trkpt lat="48.59229" lon="-1.62071">
        <ele>62</ele>
        <time>2007-12-24T14:39:15Z</time>
      </trkpt>
      <trkpt lat="48.59282" lon="-1.62225">
        <ele>58</ele>
        <time>2007-12-24T14:39:15Z</time>
      </trkpt>
      <trkpt lat="48.59331" lon="-1.62252">
        <ele>51</ele>
        <time>2007-12-24T14:39:15Z</time>
      </trkpt>
      <trkpt lat="48.59327" lon="-1.62374">
        <ele>49</ele>
        <time>2007-12-24T14:39:15Z</time>
      </trkpt>
      <trkpt lat="48.59392" lon="-1.62382">
        <ele>22</ele>
        <time>2007-12-24T14:39:15Z</time>
      </trkpt>
      <trkpt lat="48.59364" lon="-1.62489">
        <ele>25</ele>
        <time>2007-12-24T14:39:15Z</time>
      </trkpt>
      <trkpt lat="48.5932" lon="-1.62506">
        <ele>44</ele>
        <time>2007-12-24T14:39:15Z</time>
      </trkpt>
      <trkpt lat="48.59273" lon="-1.62648">
        <ele>49</ele>
        <time>2007-12-24T14:39:15Z</time>
      </trkpt>
      <trkpt lat="48.59233" lon="-1.62699">
        <ele>62</ele>
        <time>2007-12-24T14:39:15Z</time>
      </trkpt>
      <trkpt lat="48.59177" lon="-1.62875">
        <ele>56</ele>
        <time>2007-12-24T14:39:15Z</time>
      </trkpt>
      <trkpt lat="48.5912" lon="-1.62976">
        <ele>56</ele>
        <time>2007-12-24T14:39:15Z</time>
      </trkpt>
      <trkpt lat="48.591" lon="-1.62974">
        <ele>61</ele>
        <time>2007-12-24T14:39:15Z</time>
      </trkpt>
      <trkpt lat="48.59008" lon="-1.6316">
        <ele>58</ele>
        <time>2007-12-24T14:39:15Z</time>
      </trkpt>
      <trkpt lat="48.58923" lon="-1.6314">
        <ele>67</ele>
        <time>2007-12-24T14:39:15Z</time>
      </trkpt>
      <trkpt lat="48.5887" lon="-1.63323">
        <ele>47</ele>
        <time>2007-12-24T14:39:15Z</time>
      </trkpt>
      <trkpt lat="48.58814" lon="-1.63305">
        <ele>49</ele>
        <time>2007-12-24T14:39:15Z</time>
      </trkpt>
      <trkpt lat="48.58771" lon="-1.63264">
        <ele>51</ele>
        <time>2007-12-24T14:39:15Z</time>
      </trkpt>
      <trkpt lat="48.58773" lon="-1.63119">
        <ele>57</ele>
        <time>2007-12-24T14:39:15Z</time>
      </trkpt>
      <trkpt lat="48.58705" lon="-1.62795">
        <ele>67</ele>
        <time>2007-12-24T14:39:15Z</time>
      </trkpt>
      <trkpt lat="48.58442" lon="-1.62876">
        <ele>82</ele>
        <time>2007-12-24T14:39:15Z</time>
      </trkpt>
      <trkpt lat="48.58525" lon="-1.63076">
        <ele>76</ele>
        <time>2007-12-24T14:39:15Z</time>
      </trkpt>
      <trkpt lat="48.58707" lon="-1.63219">
        <ele>56</ele>
        <time>2007-12-24T14:39:15Z</time>
      </trkpt>
      <trkpt lat="48.58712" lon="-1.63328">
        <ele>54</ele>
        <time>2007-12-24T14:39:15Z</time>
      </trkpt>
      <trkpt lat="48.58606" lon="-1.63469">
        <ele>57</ele>
        <time>2007-12-24T14:39:15Z</time>
      </trkpt>
      <trkpt lat="48.5858" lon="-1.63575">
        <ele>52</ele>
        <time>2007-12-24T14:39:15Z</time>
      </trkpt>
      <trkpt lat="48.58654" lon="-1.63652">
        <ele>52</ele>
        <time>2007-12-24T14:39:15Z</time>
      </trkpt>
      <trkpt lat="48.58686" lon="-1.6378">
        <ele>56</ele>
        <time>2007-12-24T14:39:15Z</time>
      </trkpt>
      <trkpt lat="48.5852" lon="-1.64012">
        <ele>61</ele>
        <time>2007-12-24T14:39:15Z</time>
      </trkpt>
      <trkpt lat="48.58364" lon="-1.64037">
        <ele>66</ele>
        <time>2007-12-24T14:39:15Z</time>
      </trkpt>
      <trkpt lat="48.58254" lon="-1.64107">
        <ele>67</ele>
        <time>2007-12-24T14:39:15Z</time>
      </trkpt>
      <trkpt lat="48.58125" lon="-1.64324">
        <ele>69</ele>
        <time>2007-12-24T14:39:15Z</time>
      </trkpt>
      <trkpt lat="48.5805" lon="-1.64691">
        <ele>63</ele>
        <time>2007-12-24T14:39:15Z</time>
      </trkpt>
      <trkpt lat="48.57902" lon="-1.65141">
        <ele>56</ele>
        <time>2007-12-24T14:39:15Z</time>
      </trkpt>
      <trkpt lat="48.57973" lon="-1.65371">
        <ele>51</ele>
        <time>2007-12-24T14:39:15Z</time>
      </trkpt>
      <trkpt lat="48.57998" lon="-1.65423">
        <ele>48</ele>
        <time>2007-12-24T14:39:15Z</time>
      </trkpt>
      <trkpt lat="48.58094" lon="-1.65448">
        <ele>46</ele>
        <time>2007-12-24T14:39:15Z</time>
      </trkpt>
      <trkpt lat="48.58127" lon="-1.65416">
        <ele>51</ele>
        <time>2007-12-24T14:39:15Z</time>
      </trkpt>
      <trkpt lat="48.58213" lon="-1.65443">
        <ele>36</ele>
        <time>2007-12-24T14:39:15Z</time>
      </trkpt>
      <trkpt lat="48.58246" lon="-1.65493">
        <ele>30</ele>
        <time>2007-12-24T14:39:15Z</time>
      </trkpt>
      <trkpt lat="48.58356" lon="-1.65546">
        <ele>28</ele>
        <time>2007-12-24T14:39:15Z</time>
      </trkpt>
      <trkpt lat="48.58514" lon="-1.65531">
        <ele>32</ele>
        <time>2007-12-24T14:39:15Z</time>
      </trkpt>
      <trkpt lat="48.58667" lon="-1.65739">
        <ele>7</ele>
        <time>2007-12-24T14:39:15Z</time>
      </trkpt>
      <trkpt lat="48.58655" lon="-1.65908">
        <ele>9</ele>
        <time>2007-12-24T14:39:15Z</time>
      </trkpt>
      <trkpt lat="48.58369" lon="-1.66235">
        <ele>9</ele>
        <time>2007-12-24T14:39:15Z</time>
      </trkpt>
      <trkpt lat="48.58228" lon="-1.66275">
        <ele>19</ele>
        <time>2007-12-24T14:39:15Z</time>
      </trkpt>
      <trkpt lat="48.58148" lon="-1.66381">
        <ele>24</ele>
        <time>2007-12-24T14:39:15Z</time>
      </trkpt>
      <trkpt lat="48.58127" lon="-1.66478">
        <ele>23</ele>
        <time>2007-12-24T14:39:15Z</time>
      </trkpt>
      <trkpt lat="48.57936" lon="-1.66545">
        <ele>40</ele>
        <time>2007-12-24T14:39:15Z</time>
      </trkpt>
      <trkpt lat="48.57689" lon="-1.66522">
        <ele>51</ele>
        <time>2007-12-24T14:39:15Z</time>
      </trkpt>
      <trkpt lat="48.57595" lon="-1.66959">
        <ele>59</ele>
        <time>2007-12-24T14:39:15Z</time>
      </trkpt>
      <trkpt lat="48.57495" lon="-1.67203">
        <ele>54</ele>
        <time>2007-12-24T14:39:15Z</time>
      </trkpt>
      <trkpt lat="48.5749" lon="-1.67331">
        <ele>48</ele>
        <time>2007-12-24T14:39:15Z</time>
      </trkpt>
      <trkpt lat="48.57436" lon="-1.67415">
        <ele>53</ele>
        <time>2007-12-24T14:39:15Z</time>
      </trkpt>
      <trkpt lat="48.57352" lon="-1.67832">
        <ele>54</ele>
        <time>2007-12-24T14:39:15Z</time>
      </trkpt>
      <trkpt lat="48.57355" lon="-1.68012">
        <ele>59</ele>
        <time>2007-12-24T14:39:15Z</time>
      </trkpt>
      <trkpt lat="48.57162" lon="-1.68713">
        <ele>58</ele>
        <time>2007-12-24T14:39:15Z</time>
      </trkpt>
      <trkpt lat="48.5718" lon="-1.6886">
        <ele>57</ele>
        <time>2007-12-24T14:39:15Z</time>
      </trkpt>
      <trkpt lat="48.56928" lon="-1.69302">
        <ele>54</ele>
        <time>2007-12-24T14:39:15Z</time>
      </trkpt>
      <trkpt lat="48.56731" lon="-1.69734">
        <ele>47</ele>
        <time>2007-12-24T14:39:15Z</time>
      </trkpt>
      <trkpt lat="48.5685" lon="-1.6995">
        <ele>34</ele>
        <time>2007-12-24T14:39:15Z</time>
      </trkpt>
      <trkpt lat="48.56948" lon="-1.70168">
        <ele>14</ele>
        <time>2007-12-24T14:39:15Z</time>
      </trkpt>
      <trkpt lat="48.57073" lon="-1.70151">
        <ele>15</ele>
        <time>2007-12-24T14:39:15Z</time>
      </trkpt>
      <trkpt lat="48.57139" lon="-1.70308">
        <ele>5</ele>
        <time>2007-12-24T14:39:15Z</time>
      </trkpt>
      <trkpt lat="48.57247" lon="-1.70435">
        <ele>3</ele>
        <time>2007-12-24T14:39:15Z</time>
      </trkpt>
      <trkpt lat="48.57082" lon="-1.70863">
        <ele>2</ele>
        <time>2007-12-24T14:39:15Z</time>
      </trkpt>
      <trkpt lat="48.56825" lon="-1.7122">
        <ele>2</ele>
        <time>2007-12-24T14:39:15Z</time>
      </trkpt>
      <trkpt lat="48.57327" lon="-1.7193">
        <ele>2</ele>
        <time>2007-12-24T14:39:15Z</time>
      </trkpt>
      <trkpt lat="48.56984" lon="-1.72351">
        <ele>2</ele>
        <time>2007-12-24T14:39:15Z</time>
      </trkpt>
      <trkpt lat="48.56721" lon="-1.72724">
        <ele>3</ele>
        <time>2007-12-24T14:39:15Z</time>
      </trkpt>
      <trkpt lat="48.56633" lon="-1.72921">
        <ele>3</ele>
        <time>2007-12-24T14:39:15Z</time>
      </trkpt>
      <trkpt lat="48.56444" lon="-1.73079">
        <ele>3</ele>
        <time>2007-12-24T14:39:15Z</time>
      </trkpt>
      <trkpt lat="48.5627" lon="-1.7336">
        <ele>3</ele>
        <time>2007-12-24T14:39:15Z</time>
      </trkpt>
      <trkpt lat="48.55994" lon="-1.73969">
        <ele>3</ele>
        <time>2007-12-24T14:39:15Z</time>
      </trkpt>
      <trkpt lat="48.55533" lon="-1.7378">
        <ele>4</ele>
        <time>2007-12-24T14:39:15Z</time>
      </trkpt>
      <trkpt lat="48.55553" lon="-1.73707">
        <ele>4</ele>
        <time>2007-12-24T14:39:15Z</time>
      </trkpt>
      <trkpt lat="48.55445" lon="-1.73706">
        <ele>6</ele>
        <time>2007-12-24T14:39:15Z</time>
      </trkpt>
      <trkpt lat="48.55298" lon="-1.74203">
        <ele>7</ele>
        <time>2007-12-24T14:39:15Z</time>
      </trkpt>
      <trkpt lat="48.55222" lon="-1.74187">
        <ele>10</ele>
        <time>2007-12-24T14:39:15Z</time>
      </trkpt>
      <trkpt lat="48.55199" lon="-1.74334">
        <ele>12</ele>
        <time>2007-12-24T14:39:15Z</time>
      </trkpt>
      <trkpt lat="48.55239" lon="-1.7452">
        <ele>14</ele>
        <time>2007-12-24T14:39:15Z</time>
      </trkpt>
      <trkpt lat="48.55185" lon="-1.7498">
        <ele>18</ele>
        <time>2007-12-24T14:39:15Z</time>
      </trkpt>
      <trkpt lat="48.55274" lon="-1.75075">
        <ele>10</ele>
        <time>2007-12-24T14:39:15Z</time>
      </trkpt>
      <trkpt lat="48.55144" lon="-1.75336">
        <ele>14</ele>
        <time>2007-12-24T14:39:15Z</time>
      </trkpt>
      <trkpt lat="48.55223" lon="-1.75448">
        <ele>6</ele>
        <time>2007-12-24T14:39:15Z</time>
      </trkpt>
    </trkseg>
  </trk>
</gpx>